カタログに戻る

STARLINK-11578

運用中通信VLEO
NORAD 63014·PAYLOAD·🇺🇸 United States

打ち上げ Feb 15, 2025 から Cape Canaveral Space Force Station

Loading…

次のパス (今後24時間)

TLE

最新Source: CelesTrak SupGP

元期: Sep 15, 2026, 02:26 UTC

1 63014C 25032K   26258.10187500  .00094552  00000+0  73450-3 0  2585
2 63014  43.0006 133.9329 0001646 264.4418 324.6053 15.70787885    15

AllMySatでSTARLINK-11578をリアルタイム追跡

Download on the App Store